GFSFLT2_925_spd_045.txt.gz
Wind_Speed
22 20 17 19 22 23 22 21 21 21 21 22 20 20 18 15 14 13 12 11 12 12 13 13 13 16 19 18 15 15 22 9
23 16 20 21 22 21 21 21 21 22 22 20 18 17 14 12 10 9 9 10 11 11 11 11 14 10 17 16 14 15 18 22
23 21 22 21 22 21 21 20 22 21 20 19 18 14 12 10 8 7 8 9 12 12 10 11 12 14 11 13 13 15 14 21
25 26 25 25 23 22 22 22 21 20 18 16 12 11 9 7 7 8 10 9 9 10 11 11 12 12 13 13 15 14 13 15
26 27 26 24 24 23 24 23 21 17 11 8 10 11 9 3 6 9 7 11 12 13 8 7 9 11 13 14 13 12 15 15
28 27 26 24 24 26 23 21 18 16 14 14 12 8 5 5 7 7 15 13 9 6 8 11 12 12 13 14 12 13 14 18
32 30 25 26 27 22 19 20 22 20 14 11 11 12 12 11 11 10 8 6 6 6 9 11 11 12 11 15 16 14 13 18
27 22 23 22 24 27 26 25 21 16 12 11 10 9 10 10 9 8 5 5 6 7 8 9 10 12 13 14 16 14 15 17
24 26 21 24 27 25 23 19 15 15 14 11 10 9 12 12 9 7 6 6 6 6 6 8 11 11 13 14 11 16 16 17
26 22 23 25 23 22 20 17 15 14 13 12 10 12 11 8 5 6 7 6 4 6 7 10 11 13 14 15 18 20 17 22
28 28 26 24 22 21 20 17 14 11 10 11 15 15 12 7 7 6 6 4 4 7 10 10 12 14 14 13 15 16 18 18
34 31 27 25 24 22 18 12 10 9 10 12 15 14 12 6 4 3 4 4 5 9 7 8 14 12 16 13 18 14 13 17
37 33 29 27 24 18 12 12 12 12 10 13 13 14 10 7 7 5 5 4 7 7 9 14 16 15 11 21 19 10 15 10
36 31 29 25 20 16 13 16 14 12 13 13 14 11 9 7 6 2 2 6 5 8 12 15 14 15 18 17 4 14 7 12
33 31 28 23 17 14 13 13 17 16 15 14 16 14 9 6 5 4 1 2 5 10 12 14 19 20 16 10 3 3 6 8
31 30 27 22 20 22 21 23 23 21 19 19 19 13 11 7 6 6 8 5 5 6 9 12 16 18 19 20 16 10 2 4
31 28 22 23 25 25 24 23 22 25 23 22 19 15 11 7 7 5 5 1 5 10 14 17 19 21 20 15 12 10 12 5
30 27 24 24 29 27 25 20 20 22 25 24 18 14 12 10 8 4 1 6 9 12 15 16 18 20 22 23 12 6 5 7
29 29 27 31 27 26 19 21 21 22 24 21 16 15 11 4 1 4 7 10 13 15 16 17 19 20 14 9 8 8 13 10
27 28 31 32 25 22 19 19 19 17 13 14 12 6 2 2 4 8 11 14 14 16 16 14 10 12 11 11 12 11 12 11

GFSFLT2_925_spd_048.txt.gz
Wind_Speed
25 25 20 20 23 24 23 23 24 25 25 25 24 24 22 20 18 17 16 17 16 15 16 14 14 16 14 14 17 18 19 15
36 36 17 15 20 21 23 23 25 25 24 23 22 20 18 16 15 14 15 15 16 15 15 15 14 10 12 14 15 17 16 15
34 26 21 23 23 22 23 24 25 24 23 22 20 19 17 14 13 13 15 17 15 13 13 11 10 11 13 14 14 15 14 16
31 26 29 28 26 25 25 26 26 25 21 20 17 16 15 14 14 14 14 12 11 12 11 11 9 9 11 13 12 12 12 13
27 26 27 27 27 26 26 24 24 21 17 15 13 12 12 13 14 14 13 11 14 11 8 7 8 8 10 11 12 12 11 13
25 28 27 26 27 27 26 24 21 17 13 11 12 11 11 11 13 12 15 14 12 7 7 7 7 10 11 12 13 12 13 14
28 28 27 26 26 26 26 23 19 16 14 13 14 14 15 14 20 19 15 11 6 4 5 7 8 10 10 11 12 12 12 15
33 29 29 27 28 25 24 19 19 18 16 15 17 17 18 20 19 15 12 7 6 6 8 9 10 9 10 11 12 13 14 16
34 32 30 27 26 22 21 24 22 20 15 14 14 15 17 17 15 12 9 6 5 6 6 8 9 10 9 9 11 15 15 18
31 32 29 27 26 27 27 24 20 16 14 13 13 14 15 14 11 9 9 6 5 5 7 8 8 8 7 7 9 13 12 13
32 31 32 32 31 29 25 20 17 16 14 13 13 15 13 11 11 10 8 6 3 5 5 6 9 8 8 5 11 12 9 9
36 33 34 32 30 26 21 18 16 13 12 14 15 15 15 13 11 10 8 6 2 3 4 6 11 7 7 5 10 11 4 11
38 37 35 33 30 25 20 18 16 13 12 16 17 16 14 12 12 10 8 4 2 3 4 7 9 10 5 16 12 3 12 4
40 38 36 33 30 26 20 17 15 14 16 19 19 16 12 11 9 12 7 2 1 1 4 6 6 12 9 9 3 8 2 13
41 40 37 32 27 22 15 16 13 17 20 21 20 16 12 10 8 6 6 3 2 0 3 7 7 10 11 5 3 3 5 7
38 39 34 30 26 22 21 25 24 23 26 23 20 18 13 12 10 11 8 7 3 2 6 9 10 12 12 11 14 15 3 4
40 35 31 28 28 25 25 24 27 24 24 23 24 21 15 15 13 9 9 6 1 4 8 10 12 13 14 15 15 13 10 4
37 33 33 29 30 28 28 27 26 22 25 25 25 20 15 13 11 10 6 3 5 7 9 12 13 14 15 14 10 7 4 4
35 36 34 31 33 31 29 27 26 26 30 29 26 18 16 14 6 1 2 5 7 8 10 11 10 8 7 6 6 7 8 9
30 33 31 31 32 31 31 27 27 28 32 28 21 20 14 7 7 6 2 4 8 12 11 7 7 9 8 9 8 8 7 8

GFSFLT2_925_spd_054.txt.gz
Wind_Speed
35 32 28 24 27 27 26 26 27 28 28 28 28 28 27 26 24 24 22 21 22 21 21 20 18 16 16 16 16 15 15 15
44 37 20 17 21 21 22 23 25 26 27 28 26 24 24 23 22 20 20 20 19 19 17 18 17 15 15 14 13 13 13 12
36 30 30 18 19 21 21 19 21 24 25 23 22 21 21 21 19 18 18 17 17 16 15 14 14 16 14 13 11 12 10 10
40 34 27 23 19 19 17 19 21 23 24 21 20 19 19 19 18 17 16 15 14 14 13 12 12 12 13 11 13 12 12 10
33 30 28 25 21 21 20 19 20 20 20 18 19 18 18 18 17 14 15 14 13 11 11 11 10 10 10 10 11 11 10 8
35 32 31 27 18 17 18 20 21 21 20 20 18 18 17 15 14 14 14 13 12 10 10 10 9 10 8 9 11 11 11 11
29 34 29 20 17 20 22 23 21 19 17 17 15 16 17 16 14 15 15 12 9 10 10 9 11 9 9 11 10 12 13 13
24 25 19 18 20 22 23 24 22 20 18 16 14 16 15 16 17 16 14 11 10 10 9 10 12 8 8 9 10 11 14 13
26 23 21 22 22 22 24 23 21 18 15 16 17 17 16 18 19 17 14 11 10 8 8 9 8 7 8 7 7 9 7 10
24 24 23 24 22 23 23 21 19 16 16 15 17 18 18 21 19 17 15 11 8 7 7 7 7 6 6 2 4 5 5 9
23 23 25 25 23 24 22 21 19 18 17 18 16 18 21 20 19 17 15 11 8 5 7 5 5 2 3 3 7 1 6 6
23 24 23 25 23 23 22 21 20 20 18 18 19 20 21 19 18 18 15 12 8 5 5 4 3 0 3 4 10 4 8 4
25 26 26 27 27 25 24 25 23 20 19 19 19 21 21 20 19 18 14 9 7 7 5 3 3 3 2 3 2 5 9 4
30 33 32 31 31 30 26 26 23 22 20 20 20 20 21 21 19 17 15 12 10 8 6 5 3 2 2 1 3 2 6 8
33 34 36 34 34 31 24 25 20 20 21 21 22 22 21 19 18 18 15 11 9 9 7 6 4 1 3 1 1 2 3 4
33 33 34 35 36 35 35 32 24 27 27 24 23 22 20 20 18 16 14 12 10 8 4 1 4 2 2 2 3 5 2 3
37 37 36 36 37 37 35 32 30 23 24 23 24 23 21 20 18 17 14 12 11 4 4 5 6 4 3 2 4 5 8 7
34 37 38 37 38 38 37 34 25 19 20 26 26 23 21 19 18 17 16 13 8 3 2 4 4 3 1 3 5 5 6 8
37 36 36 38 40 38 39 37 24 24 24 27 29 26 23 22 22 23 19 14 8 0 6 5 3 2 4 7 8 8 9 10
36 35 32 34 32 36 38 33 27 26 23 25 30 29 27 22 22 18 13 6 3 4 6 6 4 5 6 7 7 7 8 8

GFSFLT2_925_spd_057.txt.gz
Wind_Speed
35 36 43 34 14 22 32 33 31 32 33 33 31 30 29 28 28 27 27 26 25 23 22 20 19 17 14 13 13 13 13 12
30 34 40 36 18 14 23 29 29 30 31 32 29 27 26 26 25 23 23 23 22 21 20 19 16 14 13 12 12 12 12 10
40 48 44 43 29 16 17 25 28 28 29 28 27 23 22 20 21 23 23 22 20 19 18 16 14 14 12 11 11 12 10 8
35 37 39 39 35 29 21 21 26 28 28 26 24 23 20 20 21 20 19 19 19 18 16 14 13 13 12 11 13 11 10 7
32 41 39 36 34 31 29 27 27 27 25 24 22 22 20 20 20 19 19 17 17 14 13 12 12 11 11 11 11 10 8 6
27 27 30 33 31 30 30 29 27 26 24 22 22 20 19 19 18 18 16 14 13 11 11 12 10 10 11 11 11 10 10 8
21 21 24 25 25 26 24 25 26 24 22 20 19 21 20 18 19 17 15 14 13 12 10 9 9 9 9 10 10 11 12 9
16 16 21 17 16 17 21 22 22 21 20 18 17 18 20 19 19 18 16 15 12 10 9 10 9 9 9 8 9 11 10 10
16 19 17 13 13 15 17 20 20 20 19 18 18 19 20 21 20 19 17 15 12 11 10 8 8 7 7 6 8 9 7 8
17 20 18 16 16 15 16 18 20 19 20 21 23 22 22 21 21 19 18 15 12 9 9 9 7 6 5 3 4 3 4 5
19 20 18 17 17 16 18 19 21 20 19 19 20 22 23 22 22 20 18 15 12 10 9 7 6 4 3 2 4 2 6 4
17 19 20 18 18 18 20 21 21 21 20 20 19 20 21 23 22 21 19 16 13 11 7 6 5 1 1 3 6 5 8 6
23 23 24 24 25 22 22 24 23 22 22 19 18 21 22 23 23 22 19 15 12 9 9 6 4 0 1 3 2 6 9 9
29 28 28 28 27 25 18 20 23 23 23 21 20 22 24 25 24 22 20 16 13 12 9 6 3 1 1 2 2 3 8 11
31 29 28 28 25 24 22 20 19 21 21 22 22 24 25 25 22 21 20 17 15 13 10 7 5 3 2 2 2 2 4 6
27 27 27 29 28 26 27 20 19 20 22 22 23 25 24 22 22 21 20 19 15 13 11 8 6 4 3 5 4 4 3 4
27 26 27 28 32 31 31 24 18 19 23 21 22 24 24 24 22 23 21 18 16 14 11 8 6 5 4 5 5 5 7 7
28 27 26 27 28 29 28 23 22 20 20 24 24 25 25 24 24 23 22 20 20 17 9 5 6 5 5 5 4 4 5 7
27 27 27 26 28 27 30 34 29 26 24 26 25 22 26 27 27 26 24 22 18 10 6 4 6 4 3 5 5 7 7 9
27 28 27 25 27 29 32 32 32 25 26 26 27 32 29 30 29 28 26 23 17 9 5 7 6 5 7 5 5 6 6 9